This is the latest recevied weather packets stored in our database for station/object WX5KDM. If no packets are shown the sender has not sent any weather packets the latest 10 day(s).
| Time | Temp. | Humidity | Pressure | Rain* | Wind** | Luminosity | Snow |
|---|---|---|---|---|---|---|---|
| 1788279518 | 33.89° C | 55% | 1020.1 hPa | 0 mm | - | - | - |
| 1788279212 | 34.44° C | 54% | 1020.2 hPa | 0 mm | - | - | - |
| 1788278907 | 34.44° C | 54% | 1020.2 hPa | 0 mm | - | - | - |
| 1788278604 | 34.44° C | 55% | 1020.1 hPa | 0 mm | - | - | - |
| 1788278303 | 33.89° C | 57% | 1020.3 hPa | 0 mm | - | - | - |
| 1788277998 | 34.44° C | 58% | 1020.4 hPa | 0 mm | - | - | - |
| 1788277694 | 34.44° C | 59% | 1020.3 hPa | 0 mm | - | - | - |
| 1788277388 | 33.89° C | 59% | 1020.4 hPa | 0 mm | - | - | - |
| 1788277083 | 33.33° C | 63% | 1020.4 hPa | 0 mm | - | - | - |
| 1788276782 | 32.78° C | 61% | 1020.6 hPa | 0 mm | - | - | - |
| 1788276481 | 33.33° C | 61% | 1020.4 hPa | 0 mm | - | - | - |
| 1788276180 | 33.33° C | 59% | 1020.5 hPa | 0 mm | - | - | - |
| 1788275875 | 32.78° C | 62% | 1020.3 hPa | 0 mm | - | - | - |
| 1788275570 | 32.22° C | 64% | 1020.2 hPa | 0 mm | - | - | - |
| 1788275269 | 32.22° C | 64% | 1020.4 hPa | 0 mm | - | - | - |
| 1788274967 | 32.22° C | 64% | 1020.4 hPa | 0 mm | - | - | - |
| 1788274666 | 32.22° C | 65% | 1020.3 hPa | 0 mm | - | - | - |
| 1788274365 | 31.67° C | 66% | 1020.3 hPa | 0 mm | - | - | - |
| 1788274061 | 31.11° C | 69% | 1020.5 hPa | 0 mm | - | - | - |
| 1788273756 | 31.11° C | 70% | 1020.2 hPa | 0 mm | - | - | - |
| 1788273452 | 30.56° C | 71% | 1020.4 hPa | 0 mm | - | - | - |
| 1788273148 | 30.56° C | 71% | 1020.3 hPa | 0 mm | - | - | - |
| 1788272844 | 30.56° C | 71% | 1020.3 hPa | 0 mm | - | - | - |
| 1788272543 | 30.56° C | 71% | 1020.3 hPa | 0 mm | - | - | - |
| 1788272239 | 30.56° C | 72% | 1020.3 hPa | 0 mm | - | - | - |
* Rain latest hour (hover to see other rain measurements)
** Current wind speed in m/s (hover to see current wind gust speed)